Onweer radar Meer informatie blitzortung!


Regen radar Meer informatie rain snow radar


Bezoek onze andere website:

Template documentation
and downloads

And another site



15 daagse weersverwachting Jyväskylä (FI)

  • Overzicht
  • Per uur
  • 15 dagen
  • Extra
  • Vergelijk
  • Kaarten
  • Dagkaart
  • Meer »
  • Info
  • Statistieken
  • Directe link
    Temp 6h Neerslag Wind  
 08:27     15:37    Daglengte: 7:10 Vandaag
08:00
6.0 mm
3
14:00
7.3 mm
3
20:00
10.5 mm
3
 08:30     15:35    Daglengte: 7:05 Morgen
02:00
17.3 mm
2
08:00
2.9 mm
2
14:00
7.7 mm
2
20:00
20.2 mm
5
 08:33     15:32    Daglengte: 6:59 Vrijdag 15 Nov
02:00
15.4 mm
5
08:00
 
3
14:00
 
3
20:00
-0°
 
1
 08:36     15:30    Daglengte: 6:54 Zaterdag 16 Nov
02:00
-0°
 
2
Locatie info
Region: Keski-Suomi
Latitude: 62.2404°N
Longitude: 25.7513°E
109 masl
Postcode: 40100
Temp/Neerslag /Baro Onweer/DauwpuntSneeuw
    Temp Baro 1h Neerslag Dauwpunt Wind UV BewolkingSneeuw  
 08:27     15:37    Daglengte: 7:10 Vandaag
05:00
Voelt als: -2.5°
1011.0 hPa 0.9 mm
82%
0.9°
4
Windvlaag: 7 m/s
91%6 cm
06:00
Voelt als: -1.9°
1010.9 hPa 1.2 mm
82%
1.3°
3
Windvlaag: 6.9 m/s
91%6 cm
07:00
Voelt als: -1.2°
1010.9 hPa 0.9 mm
82%
1.5°
3
Windvlaag: 6.5 m/s
91%6 cm
08:00
Voelt als: -0.8°
1010.8 hPa 1.3 mm
82%
1.7°
3
Windvlaag: 5.8 m/s
91%5 cm
09:00
Voelt als: -0.7°
1010.7 hPa 1.2 mm
82%
1.8°
3
Windvlaag: 5.2 m/s
90%5 cm
10:00
Voelt als: -0.5°
1010.4 hPa 1.0 mm
82%
1.9°
3
Windvlaag: 4.7 m/s
90%5 cm
11:00
Voelt als: -0.2°
1010.2 hPa 1.1 mm
82%
2.0°
2
Windvlaag: 4.7 m/s
91%5 cm
12:00
Voelt als: -0.2°
1010.0 hPa 1.2 mm
82%
2.0°
2
Windvlaag: 4.6 m/s
91%5 cm
13:00
Voelt als: -0.4°
1009.8 hPa 1.3 mm
82%
2.0°
3
Windvlaag: 4.6 m/s
91%5 cm
14:00
Voelt als: -0.5°
1009.3 hPa 1.5 mm
82%
2.0°
3
Windvlaag: 4.7 m/s
91%5 cm
15:00
Voelt als: -0.5°
1008.7 hPa 1.6 mm
82%
1.9°
3
Windvlaag: 4.7 m/s
91%5 cm
16:00
Voelt als: -0.6°
1008.4 hPa 1.5 mm
82%
1.9°
3
Windvlaag: 4.6 m/s
91%5 cm
17:00
Voelt als: -0.7°
1007.9 hPa 1.4 mm
82%
2.0°
3
Windvlaag: 5.3 m/s
91%5 cm
18:00
Voelt als: -0.5°
1007.2 hPa 1.5 mm
82%
2.3°
3
Windvlaag: 5.6 m/s
91%5 cm
19:00
Voelt als: -0.3°
1006.9 hPa 2.4 mm
82%
2.4°
3
Windvlaag: 5.6 m/s
91%5 cm
20:00
Voelt als: -0.0°
1006.3 hPa 2.1 mm
82%
2.7°
3
Windvlaag: 5.5 m/s
91%5 cm
21:00
Voelt als: 0.5°
1005.9 hPa 2.1 mm
82%
2.9°
3
Windvlaag: 5.3 m/s
91%5 cm
22:00
Voelt als: 0.8°
1005.8 hPa 2.5 mm
82%
3.1°
3
Windvlaag: 5.1 m/s
91%5 cm
23:00
Voelt als: 1.2°
1005.6 hPa 3.0 mm
82%
3.1°
2
Windvlaag: 5 m/s
91%5 cm
 08:30     15:35    Daglengte: 7:05 Morgen
00:00
Voelt als: 1.4°
1005.5 hPa 3.4 mm
82%
3.3°
2
Windvlaag: 4.7 m/s
91%5 cm
01:00
Voelt als: 1.6°
1005.5 hPa 3.2 mm
82%
3.4°
2
Windvlaag: 4.4 m/s
91%5 cm
02:00
Voelt als: 1.6°
1005.5 hPa 3.1 mm
82%
3.4°
2
Windvlaag: 4.2 m/s
91%5 cm
03:00
Voelt als: 1.7°
1005.5 hPa 2.9 mm
82%
3.5°
2
Windvlaag: 4.2 m/s
91%4 cm
04:00
Voelt als: 2.0°
1005.3 hPa
80%
3.5°
2
Windvlaag: 4 m/s
91%4 cm
05:00
Voelt als: 2.0°
1005.5 hPa
23%
3.5°
2
Windvlaag: 3.7 m/s
90%4 cm
06:00
Voelt als: 2.1°
1005.5 hPa
14%
3.5°
2
Windvlaag: 3.3 m/s
90%4 cm
07:00
Voelt als: 2.2°
1005.5 hPa
23%
3.7°
2
Windvlaag: 3.8 m/s
91%4 cm
08:00
Voelt als: 2.5°
1005.3 hPa
33%
3.9°
2
Windvlaag: 4 m/s
91%4 cm
09:00
Voelt als: 2.7°
1005.3 hPa
72%
4.1°
2
Windvlaag: 3.4 m/s
91%4 cm
10:00
Voelt als: 2.8°
1005.3 hPa
81%
4.3°
2
Windvlaag: 3.3 m/s
90%4 cm
11:00
Voelt als: 2.8°
1005.2 hPa
63%
4.5°
2
Windvlaag: 3.7 m/s
91%4 cm
12:00
Voelt als: 2.9°
1005.0 hPa
17%
4.7°
2
Windvlaag: 3.7 m/s
91%4 cm
13:00
Voelt als: 2.9°
1004.2 hPa 3.4 mm
82%
4.8°
2
Windvlaag: 4.1 m/s
91%4 cm
14:00
Voelt als: 3.6°
1003.9 hPa 4.4 mm
82%
5.0°
2
Windvlaag: 4.5 m/s
91%3 cm
15:00
Voelt als: 3.4°
1003.4 hPa 4.5 mm
82%
5.0°
3
Windvlaag: 4.8 m/s
90%3 cm
16:00
Voelt als: 3.3°
1002.8 hPa 4.2 mm
82%
5.2°
3
Windvlaag: 5.4 m/s
89%3 cm
17:00
Voelt als: 3.5°
1002.4 hPa 4.1 mm
82%
5.3°
3
Windvlaag: 6.1 m/s
85%3 cm
18:00
Voelt als: 3.6°
1002.2 hPa 4.4 mm
82%
5.5°
4
Windvlaag: 6.7 m/s
88%3 cm
19:00
Voelt als: 3.3°
1002.2 hPa 3.0 mm
82%
5.3°
4
Windvlaag: 6.8 m/s
90%3 cm
20:00
Voelt als: 2.4°
1002.7 hPa
82%
4.9°
5
Windvlaag: 8.5 m/s
91%3 cm
21:00
Voelt als: 2.2°
1003.5 hPa 4.3 mm
78%
4.7°
5
Windvlaag: 10 m/s
91%3 cm
22:00
Voelt als: 0.6°
1004.0 hPa 3.2 mm
82%
3.5°
6
Windvlaag: 10.5 m/s
91%3 cm
23:00
Voelt als: 0.0°
1005.9 hPa 3.3 mm
100%
3.1°
7
Windvlaag: 12.3 m/s
100%3 cm
 08:33     15:32    Daglengte: 6:59 Vrijdag 15 Nov
00:00
Voelt als: -0.7°
1007.4 hPa 4.7 mm
100%
2.0°
6
Windvlaag: 12.1 m/s
99%3 cm
01:00
Voelt als: -1.9°
1009.2 hPa
100%
0.9°
6
Windvlaag: 9.6 m/s
100%2 cm
02:00
Voelt als: -2.3°
1011.0 hPa
100%
0.4°
5
Windvlaag: 8.7 m/s
100%2 cm
03:00
Voelt als: -2.9°
1012.8 hPa
100%
0.1°
5
Windvlaag: 7.5 m/s
99%2 cm
04:00
Voelt als: -3.2°
1014.5 hPa
100%
-0.3°
5
Windvlaag: 6.7 m/s
96%2 cm
05:00
Voelt als: -2.8°
1016.0 hPa
97%
-0.3°
5
Windvlaag: 6.6 m/s
93%2 cm
06:00
Voelt als: -2.7°
1017.3 hPa
85%
-0.3°
4
Windvlaag: 6.3 m/s
93%2 cm
07:00
Voelt als: -2.4°
1018.5 hPa
27%
-0.3°
4
Windvlaag: 5.5 m/s
95%2 cm
08:00
Voelt als: -1.8°
1019.9 hPa
22%
-0.1°
3
Windvlaag: 4 m/s
97%2 cm
09:00
Voelt als: -2.3°
1020.6 hPa
21%
0.1°
4
Windvlaag: 1.9 m/s
98%2 cm
10:00
Voelt als: -1.8°
1021.8 hPa
21%
0.2°
3
Windvlaag: 1.8 m/s
94%2 cm
11:00
Voelt als: -1.2°
1022.9 hPa
21%
0.7°
3
Windvlaag: 1.8 m/s
79%2 cm
12:00
Voelt als: -1.2°
1023.8 hPa
21%
0.5°
3
Windvlaag: 1.7 m/s
70%2 cm
13:00
Voelt als: -1.4°
1024.6 hPa
21%
-0.4°
3
Windvlaag: 1.6 m/s
84%2 cm
14:00
Voelt als: -1.3°
1025.3 hPa
22%
-0.6°
3
Windvlaag: 1.6 m/s
71%2 cm
15:00
Voelt als: -0.7°
1025.7 hPa
22%
-0.7°
1
Windvlaag: 1.5 m/s
73%2 cm
16:00
Voelt als: -1.4°
1026.0 hPa
21%
-0.8°
1
Windvlaag: 1.4 m/s
67%2 cm
17:00
-0°
Voelt als: -1.4°
1026.3 hPa
21%
-1.3°
1
Windvlaag: 1.3 m/s
63%2 cm
18:00
-1°
Voelt als: -2.2°
1026.6 hPa
21%
-1.8°
1
Windvlaag: 1 m/s
58%2 cm
19:00
-1°
Voelt als: -2.5°
1026.9 hPa
21%
-1.9°
1
Windvlaag: 0.6 m/s
59%2 cm
20:00
-0°
Voelt als: -2.0°
1027.3 hPa
21%
-2.0°
1
Windvlaag: 0.3 m/s
80%2 cm
21:00
-0°
Voelt als: -2.1°
1027.4 hPa
21%
-2.0°
1
Windvlaag: 1.6 m/s
82%2 cm
22:00
-0°
Voelt als: -1.7°
1027.4 hPa
21%
-2.1°
1
Windvlaag: 0.8 m/s
84%2 cm
23:00
-1°
Voelt als: -1.9°
1027.5 hPa
22%
-2.1°
1
Windvlaag: 0.7 m/s
86%2 cm
 08:36     15:30    Daglengte: 6:54 Zaterdag 16 Nov
00:00
-0°
Voelt als: -2.0°
1027.5 hPa
21%
-2.0°
1
Windvlaag: 1.6 m/s
93%2 cm
01:00
-0°
Voelt als: -1.8°
1027.5 hPa
25%
-2.1°
1
Windvlaag: 2.1 m/s
91%2 cm
02:00
-0°
Voelt als: -2.3°
1027.6 hPa
21%
-2.1°
2
Windvlaag: 0.9 m/s
95%2 cm
03:00
-1°
Voelt als: -2.7°
1027.0 hPa   -2.2°
1
Windvlaag: 0 m/s
99%
Temp/Neerslag /Baro Onweer/DauwpuntSneeuw
    Temp Baro Neerslag Dauwpunt Wind BewolkingSneeuw  
 08:27     15:37    Daglengte: 7:10 Vandaag
05:00
Voelt als: -2.5°
1011.0 hPa 2.5 mm 0.9°
4
91%6 cm
08:00
Voelt als: -0.8°
1010.8 hPa 3.4 mm 1.7°
3
91%5 cm
11:00
Voelt als: -0.2°
1010.2 hPa 3.4 mm 2.0°
2
91%5 cm
14:00
Voelt als: -0.5°
1009.3 hPa 4.0 mm 2.0°
3
91%5 cm
17:00
Voelt als: -0.7°
1007.9 hPa 4.5 mm 2.0°
3
91%5 cm
20:00
Voelt als: -0.0°
1006.3 hPa 6.0 mm 2.7°
3
91%5 cm
23:00
Voelt als: 1.2°
1005.6 hPa 7.6 mm 3.1°
2
91%5 cm
 08:30     15:35    Daglengte: 7:05 Morgen
02:00
Voelt als: 1.6°
1005.5 hPa 9.8 mm 3.4°
2
91%5 cm
05:00
Voelt als: 2.0°
1005.5 hPa 2.9 mm 3.5°
2
90%4 cm
08:00
Voelt als: 2.5°
1005.3 hPa   3.9°
2
91%4 cm
11:00
Voelt als: 2.8°
1005.2 hPa   4.5°
2
91%4 cm
14:00
Voelt als: 3.6°
1003.9 hPa 7.7 mm 5.0°
2
91%3 cm
17:00
Voelt als: 3.5°
1002.4 hPa 12.8 mm 5.3°
3
85%3 cm
20:00
Voelt als: 2.4°
1002.7 hPa 7.4 mm 4.9°
5
91%3 cm
23:00
Voelt als: 0.0°
1005.9 hPa 10.7 mm 3.1°
7
100%3 cm
 08:33     15:32    Daglengte: 6:59 Vrijdag 15 Nov
02:00
Voelt als: -2.3°
1011.0 hPa 4.7 mm 0.4°
5
100%2 cm
05:00
Voelt als: -2.8°
1016.0 hPa   -0.3°
5
93%2 cm
08:00
Voelt als: -1.8°
1019.9 hPa   -0.1°
3
97%2 cm
11:00
Voelt als: -1.2°
1022.9 hPa   0.7°
3
79%2 cm
14:00
Voelt als: -1.3°
1025.3 hPa   -0.6°
3
71%2 cm
17:00
-0°
Voelt als: -1.4°
1026.3 hPa   -1.3°
1
63%2 cm
20:00
-0°
Voelt als: -2.0°
1027.3 hPa   -2.0°
1
80%2 cm
23:00
-1°
Voelt als: -1.9°
1027.5 hPa   -2.1°
1
86%2 cm
 08:36     15:30    Daglengte: 6:54 Zaterdag 16 Nov
02:00
-0°
Voelt als: -2.3°
1027.6 hPa   -2.1°
2
95%2 cm
05:00
-1°
Voelt als: -2.9°
1026.5 hPa 26.8 mm -1.7°
2
90% warningclass
08:00
-1°
Voelt als: -3.2°
1026.0 hPa 26.8 mm -1.3°
2
90% warningclass
11:00
-0°
Voelt als: -3.0°
1025.0 hPa 26.8 mm -1.0°
2
91% warningclass
14:00
Voelt als: -2.7°
1023.8 hPa 26.8 mm -0.8°
3
92% warningclass
17:00
Voelt als: -3.0°
1022.5 hPa 26.8 mm -0.4°
3
92% warningclass
20:00
Voelt als: -3.3°
1021.1 hPa 26.8 mm -0.1°
4
92% warningclass
23:00
Voelt als: -2.6°
1019.9 hPa 26.8 mm 0.6°
4
92%
 08:38     15:27    Daglengte: 6:49 Zondag 17 Nov
02:00
Voelt als: -1.8°
1018.7 hPa 26.8 mm 1.5°
4
92%
05:00
Voelt als: -0.9°
1017.9 hPa 26.9 mm 2.5°
4
92%
08:00
Voelt als: 0.1°
1017.2 hPa 26.9 mm 3.5°
4
92%
11:00
Voelt als: 1.1°
1018.8 hPa 26.9 mm 4.1°
4
92%
14:00
Voelt als: 1.9°
1020.2 hPa 26.9 mm 4.4°
3
92%
17:00
Voelt als: 1.1°
1021.4 hPa 26.9 mm 3.5°
3
92%
20:00
Voelt als: 0.5°
1022.7 hPa 26.9 mm 2.7°
2
92%
23:00
Voelt als: 0.3°
1023.6 hPa 26.9 mm 2.4°
2
92%
 08:41     15:25    Daglengte: 6:44 Maandag 18 Nov
02:00
Voelt als: -0.1°
1024.5 hPa 26.9 mm 1.8°
2
92%
05:00
Voelt als: -0.7°
1024.8 hPa 26.9 mm 1.1°
2
92%
08:00
Voelt als: -1.2°
1025.1 hPa 26.9 mm 0.5°
2
92% warningclass
11:00
Voelt als: -1.2°
1025.2 hPa 26.9 mm 1.0°
2
92%
14:00
Voelt als: -1.2°
1025.2 hPa 26.9 mm 1.3°
3
92%
17:00
Voelt als: -1.6°
1024.1 hPa 26.9 mm 1.2°
3
92%
20:00
Voelt als: -2.0°
1023.0 hPa 26.9 mm 1.1°
3
92%
23:00
Voelt als: -1.3°
1021.7 hPa 26.9 mm 2.0°
4
92%
 08:44     15:23    Daglengte: 6:39 Dinsdag 19 Nov
02:00
Voelt als: -0.5°
1020.3 hPa 26.9 mm 2.9°
4
92%
05:00
Voelt als: -0.3°
1019.8 hPa 26.9 mm 3.1°
4
92%
08:00
Voelt als: -0.3°
1019.3 hPa 26.9 mm 3.1°
4
92%
11:00
Voelt als: -0.4°
1020.3 hPa 27.0 mm 2.9°
4
92%
14:00
Voelt als: -0.5°
1021.2 hPa 27.0 mm 2.7°
4
92%
17:00
Voelt als: -0.2°
1022.4 hPa 27.0 mm 3.0°
3
92%
20:00
Voelt als: 0.1°
1023.7 hPa 27.0 mm 3.2°
3
92%
23:00
Voelt als: 0.6°
1025.0 hPa 27.0 mm 3.5°
3
92%
 08:47     15:20    Daglengte: 6:33 Woensdag 20 Nov
02:00
Voelt als: 1.1°
1026.2 hPa 54.0 mm 3.7°
3
92%
08:00
Voelt als: 0.3°
1027.0 hPa 54.2 mm 3.4°
3
92%
14:00
Voelt als: 0.4°
1027.5 hPa 54.4 mm 3.4°
4
92%
20:00
Voelt als: -0.1°
1028.3 hPa 54.5 mm 3.0°
4
92%
 08:50     15:18    Daglengte: 6:28 Donderdag 21 Nov
02:00
Voelt als: -0.8°
1029.0 hPa 54.5 mm 2.2°
3
92%
08:00
Voelt als: -1.1°
1029.6 hPa 54.5 mm 1.4°
3
92%
14:00
Voelt als: -0.6°
1029.7 hPa 54.5 mm 1.4°
3
92%
20:00
Voelt als: -1.7°
1029.9 hPa 54.5 mm 0.8°
3
92%
 08:52     15:16    Daglengte: 6:24 Vrijdag 22 Nov
02:00
Voelt als: -2.2°
1029.7 hPa 54.5 mm 0.1°
3
92%
08:00
Voelt als: -3.0°
1028.8 hPa 54.5 mm -0.5°
3
92% warningclass
14:00
Voelt als: -2.3°
1028.2 hPa 54.5 mm -0.8°
3
92% warningclass
20:00
-4°
Voelt als: -7.0°
1033.0 hPa 0.2 mm -4.9°
2
74%
 08:55     15:14    Daglengte: 6:19 Zaterdag 23 Nov
02:00
-4°
Voelt als: -6.9°
1033.0 hPa 0.3 mm -4.9°
2
67%
08:00
-4°
Voelt als: -7.2°
1032.5 hPa 0.4 mm -4.9°
2
67%
14:00
-3°
Voelt als: -6.9°
1032.4 hPa 0.4 mm -5.1°
2
72%
20:00
-4°
Voelt als: -7.2°
1032.4 hPa 0.5 mm -5.1°
2
73%
 08:58     15:12    Daglengte: 6:14 Zondag 24 Nov
02:00
-4°
Voelt als: -6.9°
1032.3 hPa 0.5 mm -5.1°
2
72%
08:00
-4°
Voelt als: -6.9°
1031.9 hPa 0.4 mm -5.3°
2
75%
14:00
-3°
Voelt als: -5.9°
1031.6 hPa 0.3 mm -4.9°
2
74%
20:00
-4°
Voelt als: -6.4°
1031.2 hPa 0.3 mm -5.2°
1
71%
 09:01     15:10    Daglengte: 6:09 Maandag 25 Nov
02:00
-4°
Voelt als: -6.4°
1030.8 hPa 0.3 mm -5.3°
1
67%
08:00
-4°
Voelt als: -6.0°
1030.2 hPa 0.4 mm -5.2°
1
69%
14:00
-4°
Voelt als: -5.4°
1030.0 hPa 0.3 mm -4.7°
1
68%
20:00
-4°
Voelt als: -6.4°
1029.4 hPa 0.4 mm -5.2°
1
67%
 09:03     15:08    Daglengte: 6:05 Dinsdag 26 Nov
02:00
-4°
Voelt als: -5.8°
1028.8 hPa 0.3 mm -5.3°
1
65%
08:00
-4°
Voelt als: -6.1°
1027.4 hPa 0.2 mm -5.1°
1
67%
14:00
-3°
Voelt als: -5.2°
1026.7 hPa 0.4 mm -4.4°
1
74%
20:00
-4°
Voelt als: -5.1°
1025.8 hPa 0.5 mm -4.5°
1
72%
 09:06     15:06    Daglengte: 6:00 Woensdag 27 Nov
02:00
-4°
Voelt als: -4.6°
1025.2 hPa 0.3 mm -4.3°
1
71%
08:00
-4°
Voelt als: -5.3°
1024.1 hPa 0.2 mm -4.2°
1
69%
14:00
-3°
Voelt als: -4.8°
1023.4 hPa 0.3 mm -3.6°
1
68%
20:00
-4°
Voelt als: -5.8°
1022.5 hPa 0.2 mm -4.2°
1
70%
 09:08     15:04    Daglengte: 5:56 Donderdag 28 Nov
02:00
-4°
Voelt als: -6.0°
1021.5 hPa 0.2 mm -4.1°
2
70%
  CAPE Lifted Index Hail Supercell Tornado SRH 3km CL BTM PRES CL TOP PRES Swiss DWD icon SMHI TS
 08:27     15:37    Daglengte: 7:10 Vandaag
05:00 0 J/kg 9.1 K 0 % 0 % 0 % 0 m²/s² 0 0 9.43 61
06:00 0 J/kg 9.4 K 0 % 0 % 0 % 0 m²/s² 0 0 9.76 61
07:00 0 J/kg 10.0 K 0 % 0 % 0 % 0 m²/s² 0 0 10.36 61
08:00 0 J/kg 10.4 K 0 % 0 % 0 % 0 m²/s² 0 0 10.76 61
09:00 0 J/kg 10.5 K 0 % 0 % 0 % 0 m²/s² 0 0 10.83 61
10:00 0 J/kg 10.5 K 0 % 0 % 0 % 0 m²/s² 0 0 10.83 53
11:00 0 J/kg 10.2 K 0 % 0 % 0 % 0 m²/s² 0 0 10.47 53
12:00 0 J/kg 10.4 K 0 % 0 % 0 % 0 m²/s² 0 0 10.73 53
13:00 0 J/kg 10.9 K 0 % 0 % 0 % 0 m²/s² 0 0 11.14 61
14:00 0 J/kg 10.5 K 0 % 0 % 0 % 0 m²/s² 0 0 10.8 61
15:00 1 J/kg 10.1 K 0 % 0 % 0 % 0 m²/s² 0 0 10.43 61
16:00 1 J/kg 9.8 K 0 % 0 % 0 % 0 m²/s² 0 0 10.04 61
17:00 1 J/kg 9.2 K 0 % 0 % 0 % 0 m²/s² 0 0 9.44 53
18:00 1 J/kg 8.4 K 0 % 0 % 0 % 0 m²/s² 0 0 8.61 61
19:00 1 J/kg 7.6 K 0 % 0 % 0 % 0 m²/s² 0 0 7.72 61
20:00 1 J/kg 5.8 K 0 % 0 % 0 % 0 m²/s² 0 0 5.98 61
21:00 1 J/kg 4.4 K 0 % 0 % 0 % 0 m²/s² 0 0 4.49 61
22:00 1 J/kg 5.5 K 0 % 0 % 0 % 0 m²/s² 0 0 5.53 61
23:00 1 J/kg 5.0 K 0 % 0 % 0 % 0 m²/s² 0 0 5.18 61
 08:30     15:35    Daglengte: 7:05 Morgen
00:00 1 J/kg 5.1 K 0 % 0 % 0 % 0 m²/s² 0 0 5.28 61
01:00 1 J/kg 5.3 K 0 % 0 % 0 % 0 m²/s² 0 0 5.81 61
02:00 1 J/kg 4.7 K 0 % 0 % 0 % 0 m²/s² 0 0 5.6 61
03:00 1 J/kg 4.9 K 0 % 0 % 0 % 0 m²/s² 0 0 6.37 53
04:00 1 J/kg 4.7 K 0 % 0 % 0 % 0 m²/s² 0 0 6.53 51
05:00 1 J/kg 5.0 K 0 % 0 % 0 % 0 m²/s² 0 0 6.71 45
06:00 1 J/kg 4.5 K 0 % 0 % 0 % 0 m²/s² 0 0 6.27 45
07:00 1 J/kg 4.1 K 0 % 0 % 0 % 0 m²/s² 0 0 5.99 45
08:00 0 J/kg 3.3 K 0 % 0 % 0 % 0 m²/s² 0 0 3.99 45
09:00 0 J/kg 3.1 K 0 % 0 % 0 % 0 m²/s² 0 0 3.31 45
10:00 0 J/kg 2.1 K 0 % 0 % 0 % 0 m²/s² 0 0 2.4 51
11:00 1 J/kg 1.6 K 0 % 0 % 0 % 0 m²/s² 0 0 2.02 45
12:00 1 J/kg 1.8 K 0 % 0 % 0 % 0 m²/s² 0 0 2.04 45
13:00 1 J/kg 1.4 K 0 % 0 % 0 % 0 m²/s² 0 0 2.12 61
14:00 1 J/kg 0.7 K 0 % 0 % 0 % 0 m²/s² 0 0 3.43 61
15:00 0 J/kg 6.2 K 0 % 0 % 0 % 0 m²/s² 0 0 16.85 63
16:00 0 J/kg 7.9 K 0 % 0 % 0 % 0 m²/s² 0 0 16.36 55
17:00 0 J/kg 7.5 K 0 % 0 % 0 % 0 m²/s² 0 0 15.03 61
18:00 6 J/kg 8.6 K 0 % 0 % 0 % 0 m²/s² 0 0 15.14 61
19:00 26 J/kg 8.5 K 0 % 0 % 0 % 0 m²/s² 0 0 12.4 61
20:00 9 J/kg 7.1 K 0 % 0 % 0 % 0 m²/s² 0 0 10.52 51
21:00 0 J/kg 6.6 K 0 % 0 % 0 % 0 m²/s² 0 0 9.42 53
22:00 32 J/kg 7.3 K 0 % 0 % 0 % 0 m²/s² 0 0 10.21 53
23:00 16 J/kg 7.2 K 0 % 0 % 0 % 0 m²/s² 0 0 10.2 53
 08:33     15:32    Daglengte: 6:59 Vrijdag 15 Nov
00:00 3 J/kg 6.7 K 0 % 0 % 0 % 0 m²/s² 0 0 9.61 53
01:00 12 J/kg 7.3 K 0 % 0 % 0 % 0 m²/s² 0 0 9.52 53
02:00 12 J/kg 7.9 K 0 % 0 % 0 % 0 m²/s² 0 0 10.09 53
03:00 16 J/kg 7.4 K 0 % 0 % 0 % 0 m²/s² 0 0 9.38 53
04:00 16 J/kg 7.0 K 0 % 0 % 0 % 0 m²/s² 0 0 12.85 3
05:00 15 J/kg 7.3 K 0 % 0 % 0 % 0 m²/s² 0 0 16.78 3
06:00 14 J/kg 8.1 K 0 % 0 % 0 % 0 m²/s² 0 0 17.1 2
07:00 10 J/kg 8.0 K 0 % 0 % 0 % 0 m²/s² 0 0 17.03 2
08:00 11 J/kg 7.8 K 0 % 0 % 0 % 0 m²/s² 0 0 16.86 3
09:00 6 J/kg 8.1 K 0 % 0 % 0 % 0 m²/s² 0 0 17.19 3
10:00 2 J/kg 8.5 K 0 % 0 % 0 % 0 m²/s² 0 0 17.59 3
11:00 0 J/kg 8.8 K 0 % 0 % 0 % 0 m²/s² 0 0 17.47 3
12:00 0 J/kg 9.7 K 0 % 0 % 0 % 0 m²/s² 0 0 18.01 3
13:00 0 J/kg 10.2 K 0 % 0 % 0 % 0 m²/s² 0 0 18.48 3
14:00 0 J/kg 10.9 K 0 % 0 % 0 % 0 m²/s² 0 0 18.82 3
15:00 0 J/kg 11.3 K 0 % 0 % 0 % 0 m²/s² 0 0 18.92 3
16:00 0 J/kg 11.4 K 0 % 0 % 0 % 0 m²/s² 0 0 18.75 3
17:00 0 J/kg 11.6 K 0 % 0 % 0 % 0 m²/s² 0 0 18.23 3
18:00 0 J/kg 12.0 K 0 % 0 % 0 % 0 m²/s² 0 0 17.67 2
19:00 0 J/kg 12.6 K 0 % 0 % 0 % 0 m²/s² 0 0 17.19 3
20:00 0 J/kg 12.7 K 0 % 0 % 0 % 0 m²/s² 0 0 16.96 3
21:00 0 J/kg 12.9 K 0 % 0 % 0 % 0 m²/s² 0 0 17.16 3
22:00 0 J/kg 13.4 K 0 % 0 % 0 % 0 m²/s² 0 0 18.02 3
23:00 0 J/kg 13.9 K 0 % 0 % 0 % 0 m²/s² 0 0 18.88 3
 08:36     15:30    Daglengte: 6:54 Zaterdag 16 Nov
00:00 0 J/kg 13.8 K 0 % 0 % 0 % 0 m²/s² 0 0 19.08 3
01:00 0 J/kg 13.9 K 0 % 0 % 0 % 0 m²/s² 0 0 19.63 2
02:00 0 J/kg 14.5 K 0 % 0 % 0 % 0 m²/s² 0 0 20.59 3
03:00 0 J/kg 0.0 K 0 % 0 % 0 % 0 m²/s² 0 0 13.83
Temp Baro Wind Neerslag
  EWN Forecast EWN WRFDA DWD ICON FMI HIRLAM MET Norway GFS
 08:27     15:37    Daglengte: 7:10 Vandaag
05:00 1.3° 1011.0 hPa 3.6 m/s 2.5 mm 3.6° 1008.4 hPa 5.9 m/s 7.8 mm 1.3° 1010.6 hPa 3.2 m/s 2.2 mm 1.8° 1011.1 hPa 3.1 m/s 0.0 mm 0.6° 1011.6 hPa 3.4 m/s 1.8 mm 3.6° 1011.4 hPa 4.1 m/s
08:00 2.1° 1010.8 hPa 2.8 m/s 3.4 mm 3.6° 1008.5 hPa 4.7 m/s 13.8 mm 1.5° 1010.4 hPa 1.9 m/s 1.7 mm 3.0° 1011.1 hPa 2.9 m/s 0.0 mm 2.0° 1011.0 hPa 2.4 m/s 1.5 mm 3.1° 1011.5 hPa 3.1 m/s
11:00 2.3° 1010.2 hPa 2.5 m/s 3.4 mm 3.6° 1008.0 hPa 4.0 m/s 18.1 mm 1.6° 1010.0 hPa 1.6 m/s 0.9 mm 2.9° 1010.2 hPa 2.6 m/s 0.0 mm 2.3° 1010.9 hPa 2.1 m/s 0.8 mm 3.2° 1010.9 hPa 3.0 m/s
14:00 2.3° 1009.3 hPa 2.7 m/s 4.0 mm 3.7° 1007.5 hPa 4.1 m/s 19.7 mm 1.6° 1008.7 hPa 1.6 m/s 0.9 mm 2.9° 1009.6 hPa 3.0 m/s 0.0 mm 2.2° 1009.9 hPa 2.3 m/s 2.0 mm 3.6° 1010.4 hPa 3.3 m/s
17:00 2.4° 1007.9 hPa 3.1 m/s 4.5 mm 3.8° 1005.9 hPa 3.7 m/s 23.1 mm 1.8° 1007.5 hPa 1.7 m/s 1.2 mm 3.1° 1008.5 hPa 3.3 m/s 0.0 mm 2.4° 1008.0 hPa 3.0 m/s 2.1 mm 3.2° 1009.2 hPa 2.8 m/s
20:00 2.8° 1006.3 hPa 2.8 m/s 6.0 mm 3.6° 1003.4 hPa 3.3 m/s 30.4 mm 2.2° 1006.4 hPa 2.0 m/s 1.6 mm 3.7° 1007.5 hPa 3.0 m/s 0.0 mm 2.8° 1005.9 hPa 2.7 m/s 0.4 mm 3.5° 1007.3 hPa 2.7 m/s
23:00 3.4° 1005.6 hPa 2.2 m/s 7.6 mm 4.5° 1000.6 hPa 3.5 m/s 45.0 mm 2.2° 1006.1 hPa 1.3 m/s 1.4 mm 4.3° 1006.7 hPa 2.5 m/s 0.0 mm 3.5° 1004.9 hPa 1.9 m/s 2.0 mm 3.6° 1005.0 hPa 2.7 m/s
 08:30     15:35    Daglengte: 7:05 Morgen
02:00 3.6° 1005.5 hPa 2.2 m/s 9.8 mm 6.4° 1000.6 hPa 4.8 m/s 57.5 mm 2.2° 1006.0 hPa 0.9 m/s 1.0 mm 4.7° 1006.4 hPa 2.7 m/s 0.0 mm 3.7° 1004.3 hPa 1.7 m/s 3.9 mm 3.7° 1003.9 hPa 2.0 m/s
05:00 3.7° 1005.5 hPa 1.8 m/s 2.9 mm 6.2° 1001.6 hPa 3.3 m/s 58.3 mm 2.2° 1006.6 hPa 1.1 m/s 0.2 mm 4.9° 1006.0 hPa 2.7 m/s 0.0 mm 3.7° 1004.2 hPa 1.5 m/s 0.4 mm 5.8° 1003.4 hPa 2.4 m/s
08:00 4.0° 1005.3 hPa 1.7 m/s 0.0 mm 6.9° 1002.6 hPa 4.1 m/s 59.4 mm 2.4° 1008.4 hPa 0.6 m/s 0.0 mm 4.8° 1004.9 hPa 2.6 m/s 0.0 mm 4.1° 1004.6 hPa 1.6 m/s 0.0 mm 5.4° 1005.0 hPa 2.2 m/s
11:00 4.6° 1005.2 hPa 2.1 m/s 0.0 mm 7.3° 1001.5 hPa 5.2 m/s 59.8 mm 2.7° 1009.1 hPa 1.1 m/s 0.1 mm 5.7° 1003.2 hPa 3.3 m/s 0.0 mm 4.8° 1004.9 hPa 1.9 m/s 0.0 mm 5.4° 1006.7 hPa 1.2 m/s
14:00 5.2° 1003.9 hPa 2.0 m/s 7.7 mm 7.5° 1000.0 hPa 7.0 m/s 60.0 mm 2.9° 1007.5 hPa 1.4 m/s 2.1 mm 7.2° 1001.9 hPa 4.9 m/s 0.0 mm 5.5° 1003.7 hPa 1.3 m/s 2.8 mm 5.7° 1007.1 hPa 1.8 m/s
17:00 6.0° 1002.4 hPa 3.2 m/s 12.8 mm 7.1° 997.0 hPa 7.4 m/s 60.0 mm 2.6° 1005.8 hPa 1.5 m/s 6.9 mm 8.0° 1000.5 hPa 4.3 m/s 0.0 mm 6.5° 1002.2 hPa 3.0 m/s 3.3 mm 7.3° 1005.8 hPa 3.8 m/s
20:00 5.7° 1002.7 hPa 4.7 m/s 7.4 mm 6.5° 996.3 hPa 9.2 m/s 60.4 mm 2.5° 1004.7 hPa 1.1 m/s 0.8 mm 6.0° 1002.6 hPa 5.2 m/s 0.0 mm 7.6° 1002.2 hPa 4.8 m/s 0.3 mm 8.7° 1006.0 hPa 4.3 m/s
23:00 4.6° 1005.9 hPa 7.0 m/s 10.7 mm 5.5° 997.8 hPa 11.2 m/s 62.8 mm 4.9° 1003.3 hPa 3.0 m/s 0.9 mm 4.2° 1007.1 hPa 7.6 m/s 0.4 mm 8.7° 1008.2 hPa 4.9 m/s
 08:33     15:32    Daglengte: 6:59 Vrijdag 15 Nov
02:00 2.2° 1011.0 hPa 5.3 m/s 4.7 mm 4.3° 1004.2 hPa 10.3 m/s 64.4 mm 5.0° 1004.5 hPa 3.9 m/s 0.7 mm 1.6° 1015.2 hPa 5.0 m/s 0.0 mm 4.8° 1012.5 hPa 4.1 m/s
05:00 1.5° 1016.0 hPa 4.6 m/s 0.0 mm 3.5° 1009.8 hPa 8.6 m/s 64.9 mm 1.2° 1012.1 hPa 6.2 m/s 0.3 mm 1.4° 1020.0 hPa 3.7 m/s 0.0 mm 4.2° 1016.7 hPa 3.3 m/s
08:00 1.7° 1019.9 hPa 3.3 m/s 0.0 mm 3.3° 1014.8 hPa 6.8 m/s 65.1 mm 1.2° 1018.4 hPa 4.0 m/s 0.0 mm 1.7° 1022.6 hPa 1.7 m/s 0.0 mm 1.8° 1020.1 hPa 2.7 m/s
11:00 2.1° 1022.9 hPa 3.3 m/s 0.0 mm 3.0° 1018.6 hPa 5.3 m/s 65.2 mm 1.2° 1023.0 hPa 3.3 m/s 0.0 mm 2.1° 1023.7 hPa 2.8 m/s 0.0 mm 2.6° 1023.1 hPa 2.2 m/s
14:00 1.5° 1025.3 hPa 2.6 m/s 0.0 mm 2.7° 1021.5 hPa 3.7 m/s 65.2 mm 0.4° 1025.7 hPa 3.3 m/s 0.0 mm 1.6° 1025.8 hPa 1.8 m/s 0.0 mm 1.8° 1025.2 hPa 1.7 m/s
17:00 -0.2° 1026.3 hPa 1.2 m/s 0.0 mm -0.6° 1022.9 hPa 2.2 m/s 65.2 mm 1.0° 1026.8 hPa 0.8 m/s 0.0 mm -0.4° 1026.7 hPa 1.1 m/s 0.0 mm -0.7° 1026.2 hPa 0.9 m/s
20:00 -0.4° 1027.3 hPa 1.3 m/s 0.0 mm -1.0° 1024.8 hPa 1.8 m/s 65.2 mm 0.8° 1028.0 hPa 1.4 m/s 0.0 mm -0.6° 1027.5 hPa 1.2 m/s 0.0 mm -1.0° 1027.4 hPa 0.9 m/s
23:00 -0.6° 1027.5 hPa 1.2 m/s 0.0 mm -1.2° 1025.7 hPa 0.6 m/s 65.2 mm 1.0° 1028.6 hPa 1.6 m/s 0.0 mm -0.8° 1027.5 hPa 1.2 m/s -0.9° 1028.0 hPa 1.0 m/s
 08:36     15:30    Daglengte: 6:54 Zaterdag 16 Nov
02:00 -0.5° 1027.6 hPa 1.5 m/s 0.0 mm -0.2° 1025.6 hPa 2.5 m/s 65.2 mm 0.6° 1029.2 hPa 1.7 m/s 0.0 mm -1.0° 1027.5 hPa 1.2 m/s -0.5° 1027.5 hPa 1.2 m/s
05:00 -0.8° 1026.5 hPa 1.6 m/s 26.8 mm -0.9° 1026.6 hPa 1.7 m/s -0.4° 1026.2 hPa 1.1 m/s 26.8 mm
08:00 -0.8° 1026.0 hPa 1.9 m/s 26.8 mm -0.8° 1026.1 hPa 1.9 m/s -0.4° 1025.5 hPa 1.5 m/s 26.8 mm
11:00 -0.0° 1025.0 hPa 2.5 m/s 26.8 mm -0.2° 1025.0 hPa 2.5 m/s 1.6° 1024.5 hPa 2.7 m/s 26.8 mm
14:00 0.6° 1023.8 hPa 3.0 m/s 26.8 mm 0.5° 1024.0 hPa 3.0 m/s 2.1° 1022.1 hPa 2.4 m/s 26.8 mm
17:00 0.7° 1022.5 hPa 3.4 m/s 26.8 mm 0.5° 1022.6 hPa 3.4 m/s 2.9° 1020.5 hPa 2.9 m/s 26.8 mm
20:00 0.7° 1021.1 hPa 3.7 m/s 26.8 mm 0.5° 1021.3 hPa 3.8 m/s 2.6° 1019.5 hPa 2.7 m/s 26.8 mm
23:00 1.2° 1019.9 hPa 3.7 m/s 26.8 mm 1.1° 1020.0 hPa 3.8 m/s 1.8° 1018.8 hPa 2.7 m/s 26.8 mm
 08:38     15:27    Daglengte: 6:49 Zondag 17 Nov
02:00 1.8° 1018.7 hPa 3.7 m/s 26.8 mm 1.8° 1018.7 hPa 3.8 m/s 2.1° 1018.1 hPa 2.2 m/s 26.8 mm
05:00 2.7° 1017.9 hPa 3.8 m/s 26.9 mm 2.7° 1018.0 hPa 3.9 m/s 2.3° 1017.0 hPa 2.1 m/s 26.9 mm
08:00 3.6° 1017.2 hPa 4.0 m/s 26.9 mm 3.6° 1017.2 hPa 4.1 m/s 3.2° 1017.1 hPa 2.6 m/s 26.9 mm
11:00 4.3° 1018.8 hPa 3.8 m/s 26.9 mm 4.2° 1018.8 hPa 3.8 m/s 5.2° 1018.2 hPa 3.4 m/s 26.9 mm
14:00 4.8° 1020.2 hPa 3.5 m/s 26.9 mm 4.8° 1020.4 hPa 3.6 m/s 4.2° 1018.4 hPa 2.4 m/s 26.9 mm
17:00 3.7° 1021.4 hPa 2.9 m/s 26.9 mm 3.8° 1021.7 hPa 2.9 m/s 3.1° 1018.6 hPa 2.7 m/s 26.9 mm
20:00 2.8° 1022.7 hPa 2.3 m/s 26.9 mm 2.8° 1023.0 hPa 2.2 m/s 2.9° 1019.1 hPa 2.8 m/s 26.9 mm
23:00 2.4° 1023.6 hPa 2.1 m/s 26.9 mm 2.3° 1023.9 hPa 2.0 m/s 3.5° 1020.1 hPa 2.4 m/s 26.9 mm
 08:41     15:25    Daglengte: 6:44 Maandag 18 Nov
02:00 1.9° 1024.5 hPa 1.9 m/s 26.9 mm 1.9° 1024.8 hPa 1.9 m/s 2.0° 1020.7 hPa 1.8 m/s 26.9 mm
05:00 1.2° 1024.8 hPa 1.7 m/s 26.9 mm 1.2° 1025.2 hPa 1.8 m/s 1.1° 1020.9 hPa 1.1 m/s 26.9 mm
08:00 0.7° 1025.1 hPa 1.6 m/s 26.9 mm 0.6° 1025.5 hPa 1.7 m/s 1.2° 1021.2 hPa 0.5 m/s 26.9 mm
11:00 1.2° 1025.2 hPa 2.1 m/s 26.9 mm 1.1° 1025.5 hPa 2.2 m/s 2.5° 1021.9 hPa 0.9 m/s 26.9 mm
14:00 1.7° 1025.2 hPa 2.7 m/s 26.9 mm 1.6° 1025.6 hPa 2.8 m/s 2.7° 1021.4 hPa 1.1 m/s 26.9 mm
17:00 1.6° 1024.1 hPa 3.0 m/s 26.9 mm 1.5° 1024.4 hPa 3.1 m/s 2.5° 1020.4 hPa 1.3 m/s 26.9 mm
20:00 1.5° 1023.0 hPa 3.3 m/s 26.9 mm 1.4° 1023.3 hPa 3.5 m/s 2.3° 1019.9 hPa 1.4 m/s 26.9 mm
23:00 2.2° 1021.7 hPa 3.5 m/s 26.9 mm 2.1° 1021.9 hPa 3.6 m/s 2.8° 1019.3 hPa 2.2 m/s 26.9 mm
 08:44     15:23    Daglengte: 6:39 Dinsdag 19 Nov
02:00 2.9° 1020.3 hPa 3.7 m/s 26.9 mm 2.9° 1020.5 hPa 3.8 m/s 3.1° 1018.4 hPa 2.5 m/s 26.9 mm
05:00 3.1° 1019.8 hPa 3.9 m/s 26.9 mm 3.1° 1020.0 hPa 3.9 m/s 3.2° 1017.4 hPa 2.8 m/s 26.9 mm
08:00 3.2° 1019.3 hPa 4.0 m/s 26.9 mm 3.4° 1019.5 hPa 4.1 m/s 1.4° 1017.4 hPa 2.6 m/s 26.9 mm
11:00 3.0° 1020.3 hPa 3.7 m/s 27.0 mm 3.1° 1020.5 hPa 3.8 m/s 1.8° 1017.8 hPa 2.4 m/s 27.0 mm
14:00 2.9° 1021.2 hPa 3.5 m/s 27.0 mm 2.9° 1021.5 hPa 3.6 m/s 2.3° 1017.8 hPa 2.8 m/s 27.0 mm
17:00 3.1° 1022.4 hPa 3.5 m/s 27.0 mm 3.1° 1022.8 hPa 3.5 m/s 2.6° 1018.1 hPa 2.5 m/s 27.0 mm
20:00 3.3° 1023.7 hPa 3.4 m/s 27.0 mm 3.3° 1024.1 hPa 3.5 m/s 3.2° 1018.9 hPa 2.7 m/s 27.0 mm
23:00 3.5° 1025.0 hPa 3.1 m/s 27.0 mm 3.5° 1025.4 hPa 3.2 m/s 3.7° 1019.6 hPa 2.3 m/s 27.0 mm
 08:47     15:20    Daglengte: 6:33 Woensdag 20 Nov
02:00 3.7° 1026.2 hPa 2.9 m/s 27.1 mm 3.7° 1026.8 hPa 2.9 m/s 4.0° 1020.0 hPa 2.7 m/s 27.1 mm
08:00 3.5° 1027.0 hPa 3.4 m/s 27.1 mm 3.4° 1027.6 hPa 3.5 m/s 4.1° 1020.1 hPa 2.7 m/s 27.1 mm
14:00 3.8° 1027.5 hPa 3.9 m/s 27.2 mm 3.7° 1028.1 hPa 4.0 m/s 4.4° 1020.6 hPa 2.6 m/s 27.2 mm
20:00 3.2° 1028.3 hPa 3.7 m/s 27.2 mm 3.2° 1028.8 hPa 3.9 m/s 3.8° 1022.5 hPa 2.1 m/s 27.2 mm
 08:50     15:18    Daglengte: 6:28 Donderdag 21 Nov
02:00 2.5° 1029.0 hPa 3.5 m/s 27.2 mm 2.5° 1029.5 hPa 3.7 m/s 3.1° 1023.9 hPa 1.2 m/s 27.2 mm
08:00 2.1° 1029.6 hPa 3.1 m/s 27.2 mm 2.0° 1030.0 hPa 3.3 m/s 2.9° 1025.6 hPa 1.1 m/s 27.2 mm
14:00 2.4° 1029.7 hPa 2.9 m/s 27.2 mm 2.3° 1029.9 hPa 3.1 m/s 3.0° 1027.1 hPa 0.9 m/s 27.2 mm
20:00 1.8° 1029.9 hPa 3.5 m/s 27.2 mm 1.8° 1030.1 hPa 3.7 m/s 1.8° 1028.0 hPa 1.2 m/s 27.2 mm
 08:52     15:16    Daglengte: 6:24 Vrijdag 22 Nov
02:00 1.4° 1029.7 hPa 3.5 m/s 27.2 mm 1.3° 1029.9 hPa 3.6 m/s 2.1° 1027.9 hPa 2.0 m/s 27.2 mm
08:00 0.7° 1028.8 hPa 3.5 m/s 27.2 mm 0.8° 1029.0 hPa 3.6 m/s -0.1° 1026.8 hPa 1.9 m/s 27.2 mm
14:00 1.1° 1028.2 hPa 3.2 m/s 27.2 mm 1.1° 1028.3 hPa 3.3 m/s 1.4° 1026.5 hPa 2.4 m/s 27.2 mm
20:00 -3.6° 1033.0 hPa 2.2 m/s 0.2 mm
 08:55     15:14    Daglengte: 6:19 Zaterdag 23 Nov
02:00 -3.8° 1033.0 hPa 2.1 m/s 0.3 mm
08:00 -3.8° 1032.5 hPa 2.2 m/s 0.4 mm
14:00 -3.4° 1032.4 hPa 2.4 m/s 0.4 mm
20:00 -3.8° 1032.4 hPa 2.2 m/s 0.5 mm
 08:58     15:12    Daglengte: 6:14 Zondag 24 Nov
02:00 -3.9° 1032.3 hPa 1.9 m/s 0.5 mm
08:00 -4.0° 1031.9 hPa 1.8 m/s 0.4 mm
14:00 -3.5° 1031.6 hPa 1.6 m/s 0.3 mm
20:00 -4.1° 1031.2 hPa 1.5 m/s 0.3 mm
 09:01     15:10    Daglengte: 6:09 Maandag 25 Nov
02:00 -4.3° 1030.8 hPa 1.3 m/s 0.3 mm
08:00 -4.2° 1030.2 hPa 1.2 m/s 0.4 mm
14:00 -3.6° 1030.0 hPa 1.3 m/s 0.3 mm
20:00 -4.4° 1029.4 hPa 1.3 m/s 0.4 mm
 09:03     15:08    Daglengte: 6:05 Dinsdag 26 Nov
02:00 -4.4° 1028.8 hPa 1.0 m/s 0.3 mm
08:00 -4.4° 1027.4 hPa 1.2 m/s 0.2 mm
14:00 -3.4° 1026.7 hPa 1.3 m/s 0.4 mm
20:00 -3.8° 1025.8 hPa 1.1 m/s 0.5 mm
 09:06     15:06    Daglengte: 6:00 Woensdag 27 Nov
02:00 -3.7° 1025.2 hPa 0.9 m/s 0.3 mm
08:00 -3.6° 1024.1 hPa 1.2 m/s 0.2 mm
14:00 -2.9° 1023.4 hPa 1.3 m/s 0.3 mm
20:00 -3.6° 1022.5 hPa 1.4 m/s 0.2 mm
 09:08     15:04    Daglengte: 5:56 Donderdag 28 Nov
02:00 -3.5° 1021.5 hPa 1.6 m/s 0.2 mm
FMI Hirlam - 7.5 km EWN WRFDA - 12 km DWD ICON - 7 km GFS - 25 km Basiskaart






























































Updatetijd (Europe/Amsterdam) Resolutie Lengte Stap
FMI Hirlam 00:15, 06:15, 12:15, 18:15 7.5 km 49h 1h
EWN WRFDA 02:45, 08:45, 14:45, 20:45 12 km 73h 1h
DWD ICON 22:45, 04:45, 10:45, 16:45 7 km 75h 1h
GFS 01:30, 07:30, 13:30, 19:30 25 km 237h 3h
30+ mm
25-30 mm
20-25 mm
15-20 mm
10-15 mm
6-10 mm
4-6 mm
2-4 mm
1-2 mm
0.5-1 mm
0.2-0.5 mm
0.1-0.2 mm
30+ mm
25-30 mm
20-25 mm
15-20 mm
10-15 mm
6-10 mm
4-6 mm
2-4 mm
1-2 mm
0.5-1 mm
0.2-0.5 mm
0.1-0.2 mm
Sneeuwval
Natte sneeuw
Hagel
Vorst
30+ mm
25-30 mm
20-25 mm
15-20 mm
10-15 mm
6-10 mm
4-6 mm
2-4 mm
1-2 mm
0.5-1 mm
0.2-0.5 mm
0.1-0.2 mm
Sneeuwval
Natte sneeuw
Hagel
Vorst
Onweer
50 mm
40 mm
30 mm
26 mm
22 mm
18 mm
14 mm
10 mm
9 mm
8 mm
7 mm
6 mm
5 mm
4.5 mm
4 mm
3.5 mm
3 mm
2.5 mm
2 mm
1.5 mm
1 mm
0.8 mm
0.6 mm
0.4 mm
0.2 mm
0.05 mm
35°
30°
25°
20°
15°
10°
-5°
-10°
-15°
-20°
-25°
-30°
-35°
33> m/s
29 m/s
25 m/s
21 m/s
17 m/s
14 m/s
11 m/s
8 m/s
5 m/s
3 m/s
0 m/s
2600 J/kg
2400 J/kg
2200 J/kg
2000 J/kg
1800 J/kg
1600 J/kg
1400 J/kg
1200 J/kg
1000 J/kg
800 J/kg
600 J/kg
400 J/kg
200 J/kg
70 dBZ
65 dBZ
60 dBZ
55 dBZ
50 dBZ
45 dBZ
40 dBZ
35 dBZ
30 dBZ
25 dBZ
20 dBZ
15 dBZ
10 dBZ
5 dBZ
-1 K
-2 K
-3 K
-4 K
-5 K
-6 K
-7 K
-8 K
-9 K
950 m²/s²
900 m²/s²
850 m²/s²
800 m²/s²
750 m²/s²
700 m²/s²
650 m²/s²
600 m²/s²
550 m²/s²
500 m²/s²
450 m²/s²
400 m²/s²
350 m²/s²
300 m²/s²
250 m²/s²
200 m²/s²
150 m²/s²
100 m²/s²
46 m/s
44 m/s
42 m/s
40 m/s
38 m/s
36 m/s
34 m/s
32 m/s
30 m/s
28 m/s
26 m/s
24 m/s
22 m/s
20 m/s
16 m/s
12 m/s
8 m/s
4 m/s
30 m/s
28 m/s
26 m/s
24 m/s
22 m/s
20 m/s
18 m/s
16 m/s
14 m/s
12 m/s
10 m/s
8 m/s
6 m/s
4 m/s
2 m/s
3.0
2.8
2.6
2.4
2.2
2.0
1.8
1.6
1.4
1.2
1.0
0.8
0.6
0.4
0.2
15
14
13
12
11
10
9
8
7
6
5
4
3
2
1
90%
80%
70%
60%
50%
40%
30%
20%
10%
42
40
38
36
34
32
30
28
26
24
22
20
18
16
14
12
90+ cm
80-90 cm
70-80 cm
60-70 cm
50-60 cm
40-50 cm
30-40 cm
20-30 cm
10-20 cm
1-10 cm
Sneeuwval
Natte sneeuw
Regen
>120 mm
115 mm
110 mm
105 mm
100 mm
95 mm
90 mm
85 mm
80 mm
75 mm
70 mm
65 mm
60 mm
55 mm
50 mm
45 mm
45 mm
40 mm
35 mm
30 mm
25 mm
20 mm
15 mm
10 mm
5 mm
0.1 mm
960 hPa
880 hPa
800 hPa
720 hPa
640 hPa
560 hPa
584 gpdm
568 gpdm
552 gpdm
536 gpdm
520 gpdm
504 gpdm
488 gpdm
Extreem zwaar Noodweer Kans op onweer
15% 15% 5% 50% 15%

Dag




Kaart






35°
30°
25°
20°
15°
10°
-5°
-10°
-15°
-20°
-25°
-30°
-35°
33> m/s
29 m/s
25 m/s
21 m/s
17 m/s
14 m/s
11 m/s
8 m/s
5 m/s
3 m/s
0 m/s
Extreem zwaar Noodweer Kans op onweer
15% 15% 5% 50% 15%
>120 mm
115 mm
110 mm
105 mm
100 mm
95 mm
90 mm
85 mm
80 mm
75 mm
70 mm
65 mm
60 mm
55 mm
50 mm
45 mm
45 mm
40 mm
35 mm
30 mm
25 mm
20 mm
15 mm
10 mm
5 mm
0.1 mm
Onweer risico kaarten - De groene en gele kleur geeft de kans op onweer aan binnen 40 km van een punt. Oranje, rood en violet hebben hetzelfde niveau zoals je het ziet op estofex.org waaronder ook de kans op hagel en supercells.

dBZ - dBZ staat voor decibel ten opzichte van Z.

Cape - Convective available potential energy (CAPE), is de totale hoeveelheid energie die een luchtpakketje nodig heeft om zover mogelijk te stijgen in de atmosfeer.

K Index - K-Index wordt berekend door de Vertical Totals (VT) en het verschil tussen de 850 hPa temperatuur en de 700 hPa dauwpuntsdepressie (Tdd 700) bij elkaar op te tellen.

TT Index - Convectie index wordt gebruikt voor het voorspellen van zware buien of onweer.

WRF - The Weather Research and Forecasting (WRF) is een volgende generatie mesoscale numeriek weersvoorspelling systeem ontworpen om zowel de operationele planning als het atmosferisch onderzoek te dienen. WRF is a cooperatie tussen het National Center for Atmospheric Research (NCAR), National Centers for Environmental Prediction (NCEP), Forecast Systems Laboratory (FSL), Air Force Weather Agency (AFWA), Naval Research Laboratory, University of Oklahoma, en de Federal Aviation Administration (FAA). Deze software draait op onze server.

WRFDA - Een meer geavanceerde versie van WRF

Arome - Het 2.5 km Arome model. Verzorgd door het Noors Meteorologisch Instituut.

MET Norway - De proff-default 4km meteorological data is een beste keus selectie van meteorologische modellen gebruikt door met.no die zijn geïnterpoleerd tot een gemeenschappelijke dataset. Verzorgd door het Noorse Meteorologisch Instituut.

SMHI - Het Hirlam model verzorgd door het Zweeds meteorologisch instituut.

FMI - Het Hirlam model verzorgd door het Fins meteorologisch instituut. Dekking alleen Finland.

GFS - Het Global Forecast Systeem (GFS) is een wereldwijd numerieke weersvoorspelling computermodel, gerund door NOAA.

GEM-GDPS - Het GEM-GDPS is a wereldwijd numeriek weersvoorspelling computermodel verzorgd door het Canadees Meteorologisch Centrum.

Credits/Info: Dank aan Stefan Gofferje van sääkeskus.fi voor enkele formules van GrADS. Info: Wikipedia.

Betrouwbaarheid van de verwachting

NB! 2015-03-29: Rebuilding the accuracy-test!

EWNACC
Day 1 Good forecasts

Dag 1 Tmax

Dag 2 Tmax

Geladen verwachtingen TOP 50

Totaal geladen verwachtingen:
Plaats Latitude Longitude Verwachtingen Plaats Latitude Longitude Verwachtingen